Weather Roundup
Issued by NWS Chicago, IL

Home | Current Version | Previous Version | Graphics & Text | Print | Product List | Glossary On
Versions: 1 2 3 4 5 6 7 8 9 10 11 12 13 14 15 16 17 18 19 20 21 22 23 24 25 26 27 28 29 30 31 32 33 34 35 36 37 38 39 40 41 42 43 44 45 46 47 48 49 50
000
NZUS59 KLOT 200608
HRRLOT

CHICAGO AREA WEATHER ROUNDUP
NATIONAL WEATHER SERVICE CHICAGO/ROMEOVILLE IL
100 AM CDT SUN MAY 20 2018

NOTE: "FAIR" INDICATES FEW OR NO CLOUDS BELOW 12,000 FEET WITH NO
SIGNIFICANT WEATHER AND/OR OBSTRUCTIONS TO VISIBILITY.

* THESE STATIONS ARE NOT UNDER NWS QUALITY CONTROL. THEY ALSO MAY NOT
  REPORT WEATHER SUCH AS PRECIPITATION OR FOG.

ILZ005-006-012>014-019>023-200700-
NORTHEAST ILLINOIS

CITY           SKY/WX    TMP DP  RH WIND       PRES   REMARKS
OHARE          CLOUDY    56  53  90 NE15      30.04R FOG
6HR MIN TEMP:  56; 6HR MAX TEMP:  66;

MIDWAY         CLOUDY    60  57  89 NE13      30.03R
6HR MIN TEMP:  58; 6HR MAX TEMP:  60;

AURORA         MOCLDY    63  60  90 SE6       30.00R
6HR MIN TEMP:  63; 6HR MAX TEMP:  69;

LANSING*       MOCLDY    58  58 100 SE3       30.02R FOG
JOLIET*        CLOUDY    63  60  91 CALM      30.02R FOG
WAUKEGAN       CLOUDY    47  46  97 N14G24    30.06R
6HR MIN TEMP:  47; 6HR MAX TEMP:  57;

DUPAGE AIRPORT MOCLDY    61  58  90 NE12      30.00R FOG
6HR MIN TEMP:  61; 6HR MAX TEMP:  67; 6HR PCP: TRACE;

WHEELING       CLOUDY    52  52 100 NE15G25   30.07R
6HR MIN TEMP:  52; 6HR MAX TEMP:  62;

KANKAKEE*        N/A     61  60  97 E6        30.01S
MORRIS*        MOCLDY    63  59  86 S5        30.00R
LEWIS AIRPORT*   N/A     60  57  92 S6        30.02R
NORTHERLY ISL    N/A     51  49  92 N14         N/A
$$

WIZ051-052-058>065-066-070>072-200700-
SOUTHEAST WISCONSIN

CITY           SKY/WX    TMP DP  RH WIND       PRES   REMARKS
MILWAUKEE      CLOUDY    47  41  80 NE13G20   30.08F
6HR MIN TEMP:  47; 6HR MAX TEMP:  63;

KENOSHA*       CLOUDY    48  43  82 NE15      30.07R
RACINE*        CLOUDY    47  42  83 NE16G26   30.09F
BURLINGTON     CLOUDY    51  45  82 E12G20    30.06R
WAUKESHA       CLOUDY    46  41  81 E13G20    30.09S
WEST BEND      CLOUDY    46  43  87 E13       30.08S
$$

INZ001>003-010>013-019-020-200700-
NORTHWEST INDIANA

CITY           SKY/WX    TMP DP  RH WIND       PRES   REMARKS
GARY*            N/A     57  55  94 NE7       30.03R FOG
6HR MIN TEMP:  57; 6HR MAX TEMP:  60;

MICHIGAN CITY* NOT AVBL
RENSSELAER*    NOT AVBL
VALPARAISO       N/A     61  59  93 CALM      30.02R FOG
$$

LMZ740>746-200700-
SOUTHERN LAKE MICHIGAN

STATION/POSITION TIME  SKY/WX   TEMP WIND        PRES    VSBY
                                AIR  DIR/SP/G
                 (UTC)          (F)  (DEG/KT/KT) (MB)    (MI)
HARRISON CRIB    0540            49   20/ 17/ 20   N/A
BURNHAM HARBOR   0600            51  360/ 12       N/A
CALUMET HARBOR   0548            53  350/  6/ 10 1016.4R
BURNS HARBOR     0540            55   40/  5/ 10 1016.9S
MICHIGAN CITY    0540            54   10/ 16/ 17   N/A
$$

ABBREVIATIONS USED IN REMARKS
   TC - TEMPERATURE IN CELSIUS
  WCI - WIND CHILL INDEX
   HX - HEAT INDEX
  VSB - VISIBILITY
$$



USA.gov is the U.S. government's official web portal to all federal, state and local government web resources and services.